Change the Weather History Date:

Sunday, January 15, 2012

  Actual Average Record
Temperature  
Mean Temperature 20 °F -  
Max Temperature 28 °F 14 °F 32 °F (2006)
Min Temperature 12 °F -1 °F -27 °F (2009)
Degree Days  
Heating Degree Days 45    
Moisture  
Dew Point 15 °F    
Average Humidity 85    
Maximum Humidity 93    
Minimum Humidity 69    
Precipitation  
Precipitation 0.00 in - - ()
Sea Level Pressure  
Sea Level Pressure 29.90 in    
Wind  
Wind Speed 6 mph (SSE)    
Max Wind Speed 16 mph    
Max Gust Speed 23 mph    
Visibility 9 miles    
Events      
Averages and records for this station are not official NWS values.
T = Trace of Precipitation, MM = Missing Value Source: NWS Daily Summary

Daily Weather History Graph

Daily Weather History Graph

Search for Another Location

Airport or City:

Trip Planner

Search our weather history database for the weather conditions in past years. The results will help you decide how hot, cold, wet, or windy it might be!

Date:

Astronomy

Jan. 15, 2012 Rise Set
Actual Time 7:51 AM CST 4:41 PM CST
Civil Twilight 7:16 AM CST 5:16 PM CST
Nautical Twilight 6:38 AM CST 5:55 PM CST
Astronomical Twilight 6:01 AM CST 6:32 PM CST
Moon No Moon Rise 10:34 AM CST (1/15)
Length of Visible Light 9h 59m
Length of Day
8h 49m
Waning Gibbous, 57% of the Moon is Illuminated
Jan 15
Waning Gibbous
Jan 16
Last Quarter
Jan 23
New
Jan 30
First Quarter
Feb 7
Full

Hourly Weather History & Observations

Time (CST) Temp. Windchill Dew Point Humidity Pressure Visibility Wind Dir Wind Speed Gust Speed Precip Events Conditions
12:13 AM 12.2 °F - 8.6 °F 85% 30.00 in 10.0 mi Calm Calm - N/A   Overcast
12:33 AM 12.2 °F 6.1 °F 8.6 °F 85% 30.00 in 10.0 mi South 3.5 mph - N/A   Overcast
12:53 AM 12.2 °F 4.3 °F 8.6 °F 85% 30.00 in 10.0 mi South 4.6 mph - N/A   Overcast
1:13 AM 12.2 °F 2.9 °F 8.6 °F 85% 30.00 in 10.0 mi SSW 5.8 mph - N/A   Overcast
1:33 AM 12.2 °F 6.1 °F 8.6 °F 85% 29.99 in 10.0 mi South 3.5 mph - N/A   Overcast
1:52 AM 12.2 °F 4.3 °F 8.6 °F 85% 29.99 in 10.0 mi South 4.6 mph - N/A   Overcast
2:13 AM 12.2 °F 2.9 °F 8.6 °F 85% 30.00 in 10.0 mi South 5.8 mph - N/A   Overcast
2:33 AM 12.2 °F 4.3 °F 10.4 °F 92% 30.00 in 10.0 mi South 4.6 mph - N/A   Overcast
2:52 AM 12.2 °F 4.3 °F 10.4 °F 92% 30.00 in 7.0 mi SSE 4.6 mph - N/A   Overcast
3:13 AM 12.2 °F 4.3 °F 10.4 °F 92% 29.99 in 7.0 mi SE 4.6 mph - N/A   Overcast
3:33 AM 12.2 °F 6.1 °F 10.4 °F 92% 29.99 in 10.0 mi South 3.5 mph - N/A   Overcast
3:52 AM 12.2 °F 6.1 °F 10.4 °F 92% 29.99 in 10.0 mi SSE 3.5 mph - N/A   Overcast
4:13 AM 12.2 °F 6.1 °F 10.4 °F 92% 29.99 in 7.0 mi South 3.5 mph - N/A   Overcast
4:33 AM 12.2 °F 4.3 °F 10.4 °F 92% 29.99 in 5.0 mi South 4.6 mph - N/A   Overcast
4:52 AM 12.2 °F - 10.4 °F 92% 30.00 in 5.0 mi Calm Calm - N/A   Overcast
5:13 AM 12.2 °F 6.1 °F 10.4 °F 92% 30.00 in 5.0 mi South 3.5 mph - N/A   Overcast
5:33 AM 14.0 °F 8.2 °F 12.2 °F 93% 29.99 in 7.0 mi South 3.5 mph - N/A   Overcast
5:52 AM 14.0 °F 6.5 °F 12.2 °F 93% 29.99 in 7.0 mi South 4.6 mph - N/A   Overcast
6:13 AM 14.0 °F 6.5 °F 12.2 °F 93% 29.99 in 7.0 mi South 4.6 mph - N/A   Overcast
6:33 AM 15.8 °F 8.6 °F 12.2 °F 86% 29.99 in 7.0 mi South 4.6 mph - N/A   Overcast
6:53 AM 15.8 °F 8.6 °F 12.2 °F 86% 29.98 in 10.0 mi SSE 4.6 mph - N/A   Overcast
7:13 AM 15.8 °F 10.2 °F 12.2 °F 86% 29.98 in 10.0 mi SSE 3.5 mph - N/A   Overcast
7:33 AM 15.8 °F 8.6 °F 14.0 °F 93% 29.98 in 10.0 mi SSE 4.6 mph - N/A   Overcast
7:53 AM 15.8 °F 7.2 °F 14.0 °F 93% 29.97 in 10.0 mi South 5.8 mph - N/A   Overcast
8:13 AM 17.6 °F 9.3 °F 14.0 °F 86% 29.97 in 10.0 mi South 5.8 mph - N/A   Overcast
8:32 AM 17.6 °F 9.3 °F 15.8 °F 93% 29.97 in 10.0 mi South 5.8 mph - N/A   Overcast
8:53 AM 17.6 °F 9.3 °F 15.8 °F 93% 29.97 in 10.0 mi South 5.8 mph - N/A   Overcast
9:13 AM 17.6 °F 8.2 °F 15.8 °F 93% 29.96 in 10.0 mi SSE 6.9 mph - N/A   Overcast
9:32 AM 17.6 °F 8.2 °F 15.8 °F 93% 29.95 in 7.0 mi SSE 6.9 mph - N/A   Overcast
9:53 AM 19.4 °F 10.4 °F 15.8 °F 86% 29.95 in 10.0 mi SSE 6.9 mph - N/A   Overcast
10:13 AM 19.4 °F 9.5 °F 15.8 °F 86% 29.94 in 10.0 mi South 8.1 mph - N/A   Overcast
10:33 AM 19.4 °F 8.6 °F 17.6 °F 93% 29.94 in 10.0 mi South 9.2 mph - N/A   Overcast
10:53 AM 19.4 °F 7.9 °F 17.6 °F 93% 29.94 in 10.0 mi SSE 10.4 mph 16.1 mph N/A   Overcast
11:12 AM 21.2 °F 10.9 °F 17.6 °F 86% 29.92 in 10.0 mi SE 9.2 mph - N/A   Overcast
11:33 AM 21.2 °F 11.7 °F 17.6 °F 86% 29.92 in 10.0 mi SSE 8.1 mph - N/A   Overcast
11:53 AM 21.2 °F 14.9 °F 19.4 °F 93% 29.92 in 7.0 mi SE 4.6 mph - N/A   Overcast
12:12 PM 21.2 °F 11.7 °F 19.4 °F 93% 29.89 in 7.0 mi SE 8.1 mph - N/A   Overcast
12:33 PM 23.0 °F 11.7 °F 19.4 °F 86% 29.87 in 7.0 mi SE 11.5 mph - N/A   Overcast
12:53 PM 24.8 °F 13.4 °F 19.4 °F 80% 29.84 in 10.0 mi SE 12.7 mph 18.4 mph N/A   Mostly Cloudy
1:13 PM 24.8 °F 13.4 °F 19.4 °F 80% 29.83 in 10.0 mi SSE 12.7 mph 18.4 mph N/A   Mostly Cloudy
1:33 PM 24.8 °F 15.3 °F 19.4 °F 80% 29.82 in 10.0 mi SE 9.2 mph - N/A   Scattered Clouds
1:53 PM 24.8 °F 15.3 °F 19.4 °F 80% 29.80 in 10.0 mi SE 9.2 mph - N/A   Clear
2:12 PM 26.6 °F 16.8 °F 19.4 °F 74% 29.78 in 10.0 mi SE 10.4 mph - N/A   Clear
2:33 PM 26.6 °F 16.2 °F 19.4 °F 74% 29.76 in 10.0 mi SE 11.5 mph - N/A   Clear
2:53 PM 28.4 °F 18.5 °F 21.2 °F 74% 29.75 in 10.0 mi SE 11.5 mph 17.3 mph N/A   Clear
3:13 PM 28.4 °F 18.0 °F 21.2 °F 74% 29.74 in 10.0 mi SSE 12.7 mph 19.6 mph N/A   Scattered Clouds
3:33 PM 28.4 °F 16.6 °F 21.2 °F 74% 29.73 in 10.0 mi SSE 16.1 mph 20.7 mph N/A   Scattered Clouds
3:53 PM 28.4 °F 17.5 °F 19.4 °F 69% 29.72 in 10.0 mi SSE 13.8 mph 23.0 mph N/A   Scattered Clouds
4:12 PM 28.4 °F 18.5 °F 19.4 °F 69% 29.71 in 10.0 mi SSE 11.5 mph - N/A   Scattered Clouds
4:33 PM 26.6 °F 16.2 °F 19.4 °F 74% 29.71 in 10.0 mi SSE 11.5 mph 17.3 mph N/A   Scattered Clouds
4:53 PM 26.6 °F 16.8 °F 19.4 °F 74% 29.70 in 10.0 mi SSE 10.4 mph - N/A   Clear
5:13 PM 26.6 °F 15.2 °F 19.4 °F 74% 29.70 in 10.0 mi SSE 13.8 mph 18.4 mph N/A   Clear
5:33 PM 26.6 °F 15.7 °F 19.4 °F 74% 29.69 in 10.0 mi SSE 12.7 mph 18.4 mph N/A   Clear
5:53 PM 26.6 °F 16.8 °F 19.4 °F 74% 29.69 in 10.0 mi SE 10.4 mph - N/A   Clear
6:12 PM 26.6 °F 16.2 °F 19.4 °F 74% 29.68 in 10.0 mi SSE 11.5 mph - N/A   Clear
6:33 PM 26.6 °F 16.2 °F 19.4 °F 74% 29.68 in 10.0 mi SSE 11.5 mph 16.1 mph N/A   Clear
6:52 PM 24.8 °F 14.0 °F 19.4 °F 80% 29.68 in 10.0 mi SSE 11.5 mph 17.3 mph N/A   Clear
7:13 PM 26.6 °F 18.2 °F 21.2 °F 80% 29.67 in 10.0 mi SSE 8.1 mph - N/A   Clear
7:32 PM 24.8 °F 15.3 °F 19.4 °F 80% 29.67 in 10.0 mi South 9.2 mph - N/A   Clear
7:53 PM 26.6 °F 19.1 °F 19.4 °F 74% 29.68 in 10.0 mi South 6.9 mph - N/A   Clear
8:13 PM 24.8 °F 16.9 °F 19.4 °F 80% 29.68 in 10.0 mi SSE 6.9 mph - N/A   Clear
8:32 PM 24.8 °F 16.1 °F 19.4 °F 80% 29.68 in 10.0 mi South 8.1 mph - N/A   Clear
8:53 PM 24.8 °F 17.9 °F 19.4 °F 80% 29.68 in 10.0 mi South 5.8 mph - N/A   Clear
9:13 PM 24.8 °F 16.9 °F 19.4 °F 80% 29.67 in 10.0 mi South 6.9 mph - N/A   Clear
9:32 PM 24.8 °F 19.1 °F 19.4 °F 80% 29.67 in 10.0 mi South 4.6 mph - N/A   Clear
9:52 PM 24.8 °F 20.5 °F 17.6 °F 74% 29.68 in 10.0 mi South 3.5 mph - N/A   Clear
10:13 PM 24.8 °F 17.9 °F 17.6 °F 74% 29.67 in 10.0 mi South 5.8 mph - N/A   Clear
10:33 PM 24.8 °F 15.3 °F 17.6 °F 74% 29.66 in 10.0 mi South 9.2 mph - N/A   Clear
10:52 PM 24.8 °F 17.9 °F 17.6 °F 74% 29.66 in 10.0 mi South 5.8 mph - N/A   Clear
11:13 PM 24.8 °F 15.3 °F 17.6 °F 74% 29.66 in 10.0 mi South 9.2 mph - N/A   Clear
11:33 PM 24.8 °F 15.3 °F 17.6 °F 74% 29.65 in 10.0 mi South 9.2 mph - N/A   Clear
11:52 PM 26.6 °F 19.1 °F 19.4 °F 74% 29.65 in 10.0 mi SSW 6.9 mph - N/A   Clear